Castlebar Airport

Jump to: basic info | weather | comments

Related pages: nearby airports | nearby navaids | notams | map

Basic information (top)

Codes: CLB EICB
Location: lon 53.848400, lat -9.280370
Status: small_airport

Weather (top)

Current conditions for Ireland West Knock Airport 17nm (31km) ENE (rec'd 2014/10/25 17:00Z):

EIKN 251700Z 22010KT 8000 -RADZ BKN026 BKN033 09/08 Q1008 NOSIG

Airport forecast for Ireland West Knock Airport 17nm (31km) ENE (rec'd 2014/10/25 12:25Z):

TAF EIKN 251100Z 2512/2612 22016KT 9999 FEW015 BKN032 
      TEMPO 2512/2612 22017G28KT 
      TEMPO 2603/2612 5000 -RADZ BKN010

Latest comments (top)

No longer exists.: This airport was closed in 2001 and the ... [read]

fv: fg [read]

More... (top)

See also NOTAMs and nearby airports and navaids, or visit the Castlebar Airport page at the main OurAirports website..